This demonstration page uses our WeatherBlox Daily Observations layout. Learn more.

Left ArrowRight Arrow

41.55636, -103.73856

Hourly Observations for October 29, 2018

Temp ( °F °C ) Dew Point ( °F °C ) Humidity (%) Winds ( mph kmh ) Pressure ( in mb ) Visibility ( mi km ) Precip ( " mm )
12:58 am 00:58 Clear 45 7.4 31 -0.3 58 58 W 9 15 29.91 1013 10 16 N/A
1:58 am 01:58 Clear 49 9.6 32 -0.2 51 51 W 8 13 29.88 1012 10 16 N/A
2:58 am 02:58 Clear 45 7.2 32 -0.2 60 60 WNW 12 19 29.88 1012 10 16 N/A
3:58 am 03:58 Clear 47 8.1 29 -1.5 51 51 W 7 11 29.86 1011 10 16 N/A
4:58 am 04:58 Clear 47 8.1 26 -3.2 45 45 WNW 12 19 29.88 1012 10 16 N/A
5:58 am 05:58 Clear 50 9.9 21 -5.9 33 33 W 12 19 29.87 1012 10 16 N/A
6:58 am 06:58 Clear 51 10.4 22 -5.7 32 32 WNW 12 19 29.90 1012 10 16 N/A
8:58 am 08:58 Sunny 52 11.2 25 -3.9 35 35 WNW 6 9 29.88 1012 10 16 N/A
9:58 am 09:58 Sunny 65 18.4 25 -3.7 22 22 W 12 19 29.83 1010 10 16 N/A
10:58 am 10:58 Sunny 70 20.9 23 -5.2 17 17 WSW 14 22 29.80 1009 10 16 N/A
11:58 am 11:58 Sunny 73 22.9 20 -6.7 13 13 SW 16 26 29.77 1008 10 16 N/A
12:58 pm 12:58 Mostly Sunny 74 23.4 19 -7.1 12 12 WSW 10 17 29.74 1007 10 16 N/A
1:58 pm 13:58 Sunny 76 24.2 17 -8.2 11 11 WSW 8 13 29.69 1005 10 16 N/A
2:58 pm 14:58 Sunny 75 24.1 18 -8 11 11 WSW 13 20 29.67 1005 10 16 N/A
3:58 pm 15:58 Partly Cloudy 76 24.3 19 -7.4 12 12 WSW 9 15 29.67 1005 10 16 N/A
4:58 pm 16:58 Mostly Cloudy 67 19.7 24 -4.3 19 19 NNE 10 17 29.70 1006 10 16 N/A
5:58 pm 17:58 Mostly Cloudy 62 16.6 26 -3.6 25 25 NNW 10 17 29.73 1007 10 16 N/A
6:58 pm 18:58 Mostly Clear 56 13.4 35 1.7 45 45 N 17 28 29.82 1010 10 16 N/A
7:58 pm 19:58 Partly Cloudy 50 9.8 37 2.8 62 62 N 28 44 29.91 1013 10 16 N/A
8:58 pm 20:58 Mostly Clear 45 7 35 1.8 70 70 N 24 39 29.96 1015 10 16 N/A
9:58 pm 21:58 Clear 42 5.3 33 0.4 71 71 N 20 31 29.94 1014 10 16 N/A
10:58 pm 22:58 Mostly Cloudy 39 4.1 32 -0.2 74 74 N 16 26 29.93 1014 10 16 N/A
11:58 pm 23:58 Clear 37 2.9 31 -0.8 77 77 N 13 20 29.93 1014 10 16 N/A

Powered by AerisWeather